STARLINK-5718 (55620 NORAD) Tracking and Keplerian Element Data

This shows tracking and keplerian element data for the satellite.

Feedback or suggestion? Click here.




ElementValue
Catalog55620
NameSTARLINK-5718
Epoch Orbit310
Epoch Day62.8536967
Epoch Year2023
RAAN237.7811
Inclination42.9986
Eccentricity0.0001566
Argument of Perigee265.1527
Mean Anonmoly94.9162
Mean Motion15.71349538
Decay Rate0.00010885
L11 55620U 23020BD 23062.85369670 .00010885 00000+0 86362-4 0 9992
L22 55620 42.9986 237.7811 0001566 265.1527 94.9162 15.71349538 3104



Live tracking and technical data element details for STARLINK-5718 (NORAD 55620). STARLINK-5718 can be tracked NOW for your location showing map with azimuth and elevation plus other details from your city location.







IsCatalogInMostPopularTable: catalog: 55620, numindb: 3
Update: records affected: 1



GetName: 55620 STARLINK-5718

Hit Count: updated at: Wed, 22 Mar 2023 15:11:27 GMT